This is the latest recevied weather packets stored in our database for station/object N1ORT. If no packets are shown the sender has not sent any weather packets the latest 10 day(s).
| Time | Temp. | Humidity | Pressure | Rain* | Wind** | Luminosity | Snow |
|---|---|---|---|---|---|---|---|
| 1777842245 | 11.11° C | 39% | 1004.6 hPa | 0 mm | - | 143 W/m² | - |
| 1777841939 | 10.56° C | 39% | 1004.3 hPa | 0 mm | - | 311 W/m² | - |
| 1777841636 | 10.56° C | 41% | 1004.3 hPa | 0 mm | - | 107 W/m² | - |
| 1777841333 | 11.11° C | 39% | 1004.2 hPa | 0 mm | - | 128 W/m² | - |
| 1777841030 | 11.11° C | 40% | 1004.1 hPa | 0 mm | - | 169 W/m² | - |
| 1777840727 | 11.11° C | 40% | 1004 hPa | 0 mm | - | 246 W/m² | - |
| 1777840424 | 11.11° C | 43% | 1004 hPa | 0 mm | - | 218 W/m² | - |
| 1777840121 | 10.56° C | 47% | 1004.2 hPa | 0 mm | - | 175 W/m² | - |
| 1777839819 | 10.56° C | 47% | 1004.1 hPa | 0 mm | - | 89 W/m² | - |
| 1777839518 | 11.11° C | 45% | 1003.8 hPa | 0 mm | - | 81 W/m² | - |
| 1777839214 | 11.11° C | 44% | 1003.8 hPa | 0 mm | - | 79 W/m² | - |
| 1777838912 | 11.11° C | 45% | 1003.9 hPa | 0 mm | - | 88 W/m² | - |
| 1777838607 | 11.11° C | 42% | 1004 hPa | 0 mm | - | 197 W/m² | - |
| 1777838305 | 11.11° C | 44% | 1004 hPa | 0 mm | - | 317 W/m² | - |
| 1777838001 | 11.11° C | 45% | 1004 hPa | 0 mm | - | 257 W/m² | - |
| 1777837699 | 10.56° C | 46% | 1004.1 hPa | 0 mm | - | 232 W/m² | - |
| 1777837394 | 10.56° C | 45% | 1004 hPa | 0 mm | - | 125 W/m² | - |
| 1777837091 | 11.67° C | 44% | 1004 hPa | 0 mm | - | 170 W/m² | - |
| 1777836787 | 11.67° C | 45% | 1003.9 hPa | 0 mm | - | 256 W/m² | - |
| 1777836483 | 11.11° C | 45% | 1004.1 hPa | 0 mm | - | 274 W/m² | - |
| 1777836178 | 11.67° C | 45% | 1003.6 hPa | 0 mm | - | 334 W/m² | - |
| 1777835875 | 11.67° C | 44% | 1004 hPa | 0 mm | - | 425 W/m² | - |
| 1777835572 | 11.67° C | 45% | 1003.9 hPa | 0 mm | - | 420 W/m² | - |
| 1777835269 | 11.67° C | 46% | 1004 hPa | 0 mm | - | 367 W/m² | - |
| 1777834966 | 11.67° C | 45% | 1003.9 hPa | 0 mm | - | 365 W/m² | - |
* Rain latest hour (hover to see other rain measurements)
** Current wind speed in m/s (hover to see current wind gust speed)